Temp
60 60 59 59 60 59 58 59 58 57 58 59 61 61 61 61 62 61 62 63 65 65 66 67 69 70 66 66 67 67 65 64 62 65 61 62 63 62 63 63 64 64 63
63 63 61 61 61 59 59 60 59 58 58 60 60 61 62 62 61 61 62 64 64 64 66 66 67 69 66 66 65 65 66 65 64 63 61 61 61 61 61 62 63 65 63
61 60 60 61 60 59 60 61 58 60 59 59 60 60 61 62 62 61 62 63 64 64 65 66 67 67 67 66 66 65 65 66 65 63 61 60 60 60 59 60 61 61 62
61 62 61 62 63 63 62 61 59 61 61 59 60 62 62 62 62 62 63 62 63 64 65 65 66 68 67 66 66 66 67 66 64 62 60 59 59 59 59 58 58 58 59
56 58 60 63 64 65 63 63 61 60 61 62 61 60 60 61 63 60 61 59 59 61 63 65 65 65 65 65 67 65 66 64 62 61 59 58 57 59 59 57 57 56 57
57 56 57 57 58 58 58 58 60 59 59 59 59 60 58 63 56 54 56 56 58 58 59 62 63 62 64 58 59 58 65 65 62 61 60 57 57 58 57 57 56 55 54
55 57 57 57 56 56 58 58 58 58 58 58 59 58 57 57 52 52 53 55 54 55 57 59 61 65 62 67 61 55 55 55 58 63 61 59 59 59 58 56 55 55 55
56 57 58 57 57 58 55 56 57 59 58 59 58 57 58 58 50 49 51 53 52 53 56 59 60 62 63 64 67 63 63 62 61 62 63 63 62 60 61 59 58 56 57
56 57 58 59 58 58 57 58 57 58 59 59 62 59 56 58 49 48 49 52 52 52 55 57 59 61 56 50 65 63 63 59 51 53 53 51 49 49 55 58 56 57 57
53 55 57 57 56 56 56 57 59 60 61 60 61 61 57 57 48 47 49 54 50 51 51 53 52 55 51 49 62 64 60 59 57 56 55 50 52 51 50 59 58 58 57
53 54 54 56 56 57 58 59 60 59 60 59 58 59 58 55 54 47 46 53 54 51 51 52 55 50 48 46 50 63 61 58 56 58 57 56 56 58 58 58 58 56 54
51 52 52 54 55 57 56 57 59 59 58 57 56 55 57 56 52 46 45 49 49 51 50 52 53 48 47 44 47 50 48 53 58 57 56 54 55 56 57 58 56 57 57
49 49 51 52 54 55 53 54 55 56 57 57 56 54 53 54 53 47 44 45 45 48 51 50 48 44 44 45 46 48 50 59 58 56 54 54 55 56 56 57 57 57 57
47 47 48 48 49 50 50 51 53 54 54 55 56 56 56 51 50 48 49 47 44 46 48 48 49 48 48 52 51 52 59 59 58 56 54 54 55 56 56 55 55 58 57
46 46 46 47 47 47 48 48 48 51 54 55 55 57 56 55 50 50 50 51 51 51 50 55 53 54 55 56 56 59 58 57 56 54 54 54 54 54 54 56 55 56 54
46 46 46 47 47 48 48 47 46 47 47 47 47 54 59 52 45 44 45 45 45 42 52 54 54 57 58 58 58 58 57 55 56 55 55 55 55 54 54 57 58 56 53
48 49 49 48 50 50 49 48 46 46 46 45 45 44 47 47 44 43 43 42 41 41 51 57 58 59 59 59 59 58 56 56 56 57 57 57 58 57 53 56 56 56 56
45 44 45 47 49 49 49 48 49 49 45 46 42 47 42 43 42 43 41 40 48 45 54 59 59 58 58 58 58 57 56 56 57 56 56 59 58 57 56 55 55 55 55
43 44 48 52 51 49 49 49 50 49 47 47 47 43 42 42 40 39 39 50 50 52 59 59 58 58 58 58 58 58 58 57 56 55 54 55 58 57 55 56 55 46 49
44 43 46 53 52 52 50 49 48 48 48 48 48 47 43 44 47 47 48 51 55 59 59 59 59 58 58 58 58 58 56 54 54 54 53 54 57 56 54 54 55 53 53
45 48 45 57 53 53 51 49 48 48 47 47 48 48 43 50 49 50 51 53 59 59 59 58 58 59 59 59 58 57 57 56 55 54 54 55 56 52 52 53 55 53 52
45 55 58 58 58 58 56 55 53 53 53 52 51 46 39 52 55 58 59 59 59 59 59 59 58 59 59 59 58 57 57 55 54 55 58 56 53 53 53 54 56 55 52
46 59 59 58 58 51 57 58 57 56 54 54 53 53 56 56 56 55 56 57 57 57 57 58 57 56 56 56 58 59 57 56 56 56 55 54 53 53 55 56 56 55 54
58 59 58 56 56 56 54 53 52 49 53 52 52 52 51 51 50 50 51 51 51 51 52 52 53 54 54 53 56 57 56 55 56 57 58 58 56 53 56 55 55 52 49
60 59 57 56 55 54 54 52 51 50 50 49 48 48 47 47 46 46 47 47 47 47 46 48 49 51 52 53 52 50 41 39 52 47 57 57 55 54 54 53 52 51 51
58 57 56 54 53 52 50 49 47 47 46 45 44 44 44 43 43 43 43 43 43 43 43 44 44 45 47 46 45 39 38 39 44 41 52 51 50 50 50 48 47 45 44
MSLP
1003.07 1003.08 1003.58 1003.99 1004.34 1004.86 1005.29 1005.38 1005.65 1005.74 1005.99 1006.25 1006.30 1006.50 1006.73 1006.91 1007.14 1007.33 1007.50 1007.55 1007.43 1007.29 1006.86 1007.09 1006.64 1007.04 1007.28 1007.43 1007.38 1007.97 1008.03 1008.07 1008.11 1007.28 1007.65 1007.46 1007.04 1007.29 1007.44 1007.69 1007.21 1007.50 1008.28
1003.13 1002.49 1002.92 1003.25 1003.66 1004.21 1004.54 1004.62 1004.89 1005.23 1005.34 1005.53 1005.58 1005.85 1006.22 1006.49 1006.59 1006.77 1006.96 1007.17 1007.28 1007.24 1006.48 1007.11 1006.60 1006.64 1006.36 1006.32 1006.87 1007.18 1007.21 1007.53 1007.41 1007.44 1007.61 1007.83 1007.20 1007.19 1007.15 1007.43 1007.28 1007.70 1008.32
1002.60 1002.76 1003.43 1002.94 1002.97 1003.38 1003.63 1003.88 1004.24 1004.45 1004.67 1004.90 1005.25 1005.59 1005.80 1006.01 1006.21 1006.42 1006.58 1006.67 1006.69 1006.66 1006.04 1006.67 1006.21 1006.22 1005.88 1005.84 1006.06 1006.47 1006.46 1006.47 1006.74 1007.17 1007.18 1007.66 1007.32 1007.26 1007.67 1007.85 1007.38 1007.78 1008.16
1001.68 1001.79 1001.64 1002.07 1002.81 1002.17 1002.45 1002.95 1003.38 1003.52 1003.93 1004.35 1004.57 1004.66 1004.85 1005.22 1005.61 1005.83 1005.97 1006.03 1005.98 1006.05 1006.01 1005.88 1005.83 1005.34 1005.04 1004.83 1004.99 1005.24 1005.63 1005.52 1006.26 1006.62 1006.81 1007.24 1007.17 1007.02 1007.54 1007.79 1008.02 1008.04 1008.28
1001.66 1001.35 1000.89 1000.96 1000.99 1001.87 1001.70 1001.84 1002.23 1002.72 1002.98 1003.32 1003.86 1004.17 1004.30 1004.66 1004.96 1005.36 1005.48 1005.66 1005.69 1005.72 1005.58 1005.44 1005.41 1004.78 1004.14 1004.01 1003.47 1004.29 1004.78 1005.16 1005.76 1006.02 1006.59 1006.82 1006.75 1006.97 1007.36 1007.47 1007.98 1008.14 1008.24
1001.01 1000.89 1000.76 1000.60 1000.56 1000.90 1001.40 1001.53 1001.71 1001.93 1002.29 1002.70 1003.03 1003.33 1003.68 1003.86 1003.97 1004.34 1004.78 1005.26 1005.26 1005.23 1005.32 1005.06 1004.63 1003.84 1003.24 1003.11 1002.70 1003.18 1003.70 1004.20 1004.60 1005.16 1005.66 1005.83 1005.93 1006.42 1006.78 1007.16 1007.61 1008.12 1008.40
1001.03 1000.82 1000.20 1000.45 1000.43 1000.42 1000.30 1000.61 1000.92 1001.18 1001.51 1001.82 1002.04 1002.46 1002.63 1002.96 1003.14 1003.51 1003.92 1004.41 1004.77 1004.76 1004.58 1004.41 1003.96 1003.27 1003.24 1002.66 1002.28 1002.27 1002.76 1003.08 1003.16 1003.19 1004.51 1004.88 1005.28 1005.49 1006.08 1006.85 1007.09 1007.46 1007.46
1000.28 999.82 999.64 999.72 999.69 999.65 999.80 999.82 999.90 1000.07 1000.37 1000.76 1001.14 1001.38 1001.67 1001.93 1002.33 1002.87 1003.24 1003.75 1004.21 1004.35 1004.11 1003.94 1003.72 1003.32 1002.90 1002.40 1002.41 1002.56 1002.50 1002.66 1002.86 1003.56 1003.72 1003.77 1004.12 1004.72 1005.17 1005.43 1006.13 1006.86 1007.20
999.43 999.11 998.84 998.87 998.95 998.83 998.81 998.80 998.96 999.21 999.34 999.41 999.78 1000.22 1000.59 1000.98 1001.48 1001.97 1002.74 1003.26 1003.55 1003.54 1003.41 1003.23 1003.14 1002.61 1002.02 1001.89 1002.26 1001.86 1002.14 1002.58 1002.76 1002.78 1003.36 1003.66 1003.99 1004.16 1004.81 1005.52 1006.36 1006.71 1007.10
998.57 998.06 997.89 997.84 997.84 997.86 997.82 997.80 997.99 998.11 998.03 998.48 998.47 998.66 999.14 999.70 1000.37 1000.96 1001.78 1002.47 1002.86 1003.01 1002.77 1002.59 1002.50 1002.34 1001.43 1001.09 1001.67 1001.35 1001.75 1002.11 1002.43 1002.74 1003.57 1003.93 1004.15 1004.53 1004.76 1004.91 1005.49 1006.08 1006.56
997.73 997.44 997.14 996.85 996.76 996.65 996.56 996.65 996.84 996.85 996.92 997.05 997.28 997.56 998.04 998.51 999.34 1000.00 1000.66 1001.29 1001.73 1002.06 1002.16 1002.16 1001.87 1001.41 1001.04 1000.75 1000.76 1000.59 1000.72 1000.96 1002.11 1001.81 1002.96 1003.79 1004.29 1004.71 1004.84 1005.02 1005.08 1005.44 1006.09
996.82 996.29 995.78 995.38 995.17 995.06 995.10 995.10 995.13 995.10 995.14 995.41 995.81 996.29 996.72 997.39 998.06 999.16 999.90 1000.09 1000.69 1001.29 1001.49 1001.30 1001.06 1000.75 1000.61 1000.14 1000.44 999.97 1000.42 1000.78 1001.59 1002.03 1002.94 1003.68 1004.36 1004.66 1004.64 1004.81 1004.94 1005.17 1005.46
995.47 994.88 994.42 994.09 993.74 993.55 993.59 993.64 993.66 993.70 993.79 994.03 994.48 994.94 995.61 996.43 997.27 997.95 998.94 999.44 1000.07 1000.51 1000.46 1000.26 1000.04 1000.41 1000.26 1000.09 1000.14 1000.21 1000.23 1000.70 1001.25 1002.26 1002.87 1003.55 1003.95 1004.12 1004.38 1004.64 1004.92 1005.36 1005.43
994.09 993.51 993.00 992.77 992.48 992.29 992.26 992.26 992.26 992.17 992.29 992.59 992.97 993.29 994.17 995.40 996.24 997.32 998.11 998.85 999.72 1000.05 999.88 1000.09 1000.03 1000.07 999.95 999.70 1000.01 1000.12 1000.09 1000.32 1001.34 1001.81 1002.57 1003.37 1003.88 1003.99 1004.19 1004.72 1005.18 1005.41 1005.45
992.38 991.62 991.09 990.53 990.08 989.78 989.40 989.29 989.62 989.96 990.43 990.91 991.42 992.12 992.70 993.52 994.86 995.92 996.90 997.89 998.45 998.54 998.94 999.07 999.32 999.23 999.29 999.34 999.52 999.50 999.96 1000.98 1001.35 1001.85 1002.72 1003.33 1003.56 1003.77 1004.29 1004.91 1005.08 1005.20 1005.53
990.29 989.16 988.47 988.21 987.64 987.08 986.81 986.77 987.15 987.66 988.51 989.53 990.40 991.20 991.87 992.61 993.96 995.32 996.34 996.81 997.32 998.02 998.38 998.51 998.29 998.17 998.11 997.94 998.34 999.38 1000.22 1000.67 1001.32 1001.90 1002.57 1002.87 1003.28 1003.84 1004.42 1004.90 1004.89 1005.07 1005.47
988.35 986.85 986.92 986.05 984.97 984.10 983.79 984.09 984.68 985.76 987.13 988.20 989.52 990.61 991.42 992.02 993.13 994.56 995.47 996.47 996.96 997.88 997.94 997.27 997.11 997.07 997.46 997.28 997.88 998.86 999.69 1000.44 1001.11 1001.75 1002.15 1002.70 1003.25 1003.83 1004.29 1004.67 1004.92 1004.96 1005.30
987.37 986.53 985.75 984.58 983.40 982.74 982.48 982.16 982.60 983.72 985.57 987.47 988.91 989.98 991.10 991.58 992.86 994.04 994.82 995.75 996.86 997.13 996.50 995.83 995.97 995.42 996.67 997.45 997.95 998.56 999.75 1000.57 1001.16 1001.61 1002.14 1002.58 1003.18 1003.69 1004.24 1004.67 1004.80 1004.98 1005.22
986.17 984.98 983.75 982.52 982.27 982.20 981.47 980.24 980.49 982.66 984.70 986.55 988.40 989.88 990.77 991.39 992.29 993.26 994.14 995.03 995.32 995.22 994.60 994.67 995.49 996.00 996.70 997.35 998.11 998.82 999.60 1000.30 1000.98 1001.66 1002.07 1002.62 1003.08 1003.52 1004.09 1004.38 1004.61 1004.94 1005.20
984.90 983.47 982.40 982.05 981.93 982.16 981.99 981.67 982.07 983.37 984.88 986.53 987.97 989.41 990.64 991.44 992.45 993.13 993.89 994.23 994.09 993.29 993.55 994.09 994.73 995.53 996.65 997.43 998.04 998.86 999.72 1000.40 1001.00 1001.58 1002.14 1002.61 1003.13 1003.56 1003.90 1004.22 1004.54 1005.01 1005.36
984.71 983.06 981.76 981.64 982.15 982.47 982.84 983.05 983.43 984.09 985.11 986.38 987.50 988.50 989.61 990.73 991.67 992.26 992.95 993.20 992.31 992.96 993.37 994.21 995.18 995.99 996.57 997.23 998.08 998.79 999.66 1000.24 1000.81 1001.56 1002.26 1002.65 1003.29 1003.66 1003.83 1004.07 1004.54 1004.97 1005.30
984.43 982.77 981.98 981.64 981.94 982.29 982.96 983.52 984.08 984.64 985.43 986.36 987.47 988.70 989.52 990.01 990.41 990.62 991.02 991.59 992.41 993.17 993.78 994.55 995.36 995.77 996.37 997.14 997.99 998.76 999.36 1000.20 1001.01 1001.64 1002.20 1002.79 1003.19 1003.49 1003.86 1004.20 1004.61 1004.97 1005.37
984.69 983.38 983.03 982.80 982.72 982.91 983.20 983.66 984.22 984.91 985.80 986.61 987.52 988.39 988.70 989.25 989.93 990.76 991.49 992.38 993.09 993.77 994.35 994.84 995.49 996.36 996.91 997.43 997.91 998.46 999.32 1000.27 1000.88 1001.36 1002.10 1002.57 1003.01 1003.43 1003.81 1004.23 1004.63 1005.11 1005.55
984.41 984.23 984.16 984.16 984.28 984.49 984.80 985.12 985.64 986.17 986.71 987.29 988.00 988.72 989.41 990.08 990.84 991.76 992.81 993.53 994.05 994.79 995.27 995.68 996.19 996.74 997.29 997.83 998.26 998.68 999.31 1000.33 1000.74 1001.25 1001.65 1002.24 1002.85 1003.37 1003.82 1004.37 1004.92 1005.53 1005.98
984.79 985.17 985.56 985.78 985.97 986.26 986.54 987.02 987.57 988.16 988.82 989.49 990.12 990.61 991.29 991.90 992.83 993.85 994.40 994.80 995.43 996.07 996.74 996.98 997.26 997.50 997.82 998.36 998.91 999.40 1000.22 1000.26 1001.05 1001.12 1001.78 1002.31 1002.98 1003.58 1004.21 1004.94 1005.52 1006.06 1006.41
985.86 986.51 986.98 987.32 987.65 988.04 988.39 988.80 989.42 989.97 990.63 991.37 991.83 992.57 993.43 994.18 994.85 995.42 996.01 996.40 996.85 997.40 997.90 998.37 998.67 998.81 999.07 999.38 999.81 1000.25 1000.53 1000.94 1001.53 1001.78 1002.29 1002.99 1003.81 1004.57 1005.11 1005.68 1006.31 1006.93 1007.43
Wind_Speed
10 10 8 9 10 8 8 8 9 6 8 7 7 6 6 6 6 5 5 6 6 7 6 9 12 12 7 6 5 7 6 4 7 4 2 2 2 3 4 2 4 5 2
10 9 12 11 11 9 10 10 8 9 7 8 7 7 6 6 6 6 6 6 6 8 5 10 11 10 9 8 7 10 8 7 6 14 2 3 3 3 4 4 3 3 2
6 7 8 10 11 12 13 12 9 10 9 7 7 7 6 7 7 7 6 6 7 7 5 10 11 12 13 8 10 9 9 7 7 7 5 3 1 1 2 1 3 2 2
11 12 14 14 14 15 15 13 13 12 11 10 10 9 9 7 6 6 6 6 6 6 8 9 11 12 12 8 6 7 8 7 7 6 5 3 3 2 2 2 2 2 3
7 8 12 13 14 14 13 14 13 11 13 12 11 9 8 7 6 7 6 6 6 6 6 6 9 10 15 13 5 7 6 7 5 6 4 3 3 3 6 3 3 2 3
5 6 6 6 7 7 8 8 10 11 12 11 12 12 10 8 12 13 9 6 6 5 6 6 8 11 10 16 15 15 14 10 8 7 6 4 4 4 4 4 4 3 3
6 7 5 6 7 9 9 10 12 11 10 13 13 12 12 11 14 14 12 6 6 5 5 7 8 7 10 10 12 13 10 11 9 13 12 7 6 7 7 5 4 4 4
10 9 8 7 8 7 8 10 12 10 12 13 14 13 13 11 15 15 14 7 5 7 6 7 8 10 11 9 11 9 9 9 8 6 8 8 6 8 8 6 6 4 2
16 14 12 11 11 11 12 12 11 10 12 14 14 14 14 13 17 17 11 7 6 7 6 7 10 11 13 12 13 11 9 7 3 8 4 5 7 9 9 6 3 4 2
14 13 11 10 10 11 10 11 12 13 15 12 16 16 16 16 17 19 14 6 6 5 5 8 13 16 14 15 13 10 11 10 9 8 5 6 6 5 8 4 6 7 3
13 13 15 15 15 16 16 15 15 15 16 15 16 15 15 14 13 20 19 9 7 5 4 6 6 14 16 15 19 11 13 12 8 9 7 5 4 4 4 3 5 4 4
18 18 18 18 15 14 17 18 19 17 17 18 16 14 12 12 17 17 18 16 11 7 6 6 7 13 16 14 13 10 14 11 7 7 6 4 4 4 4 4 4 4 3
20 20 20 21 21 20 19 17 15 18 17 15 11 11 10 9 10 16 20 19 12 6 6 8 14 14 14 7 10 14 13 9 8 6 5 4 3 4 5 4 3 2 2
19 20 19 18 18 17 14 14 15 16 16 16 15 14 12 10 11 9 9 8 9 8 7 7 10 8 8 7 6 9 6 7 7 7 4 4 3 3 3 3 3 3 2
19 20 19 16 20 20 20 19 18 20 19 16 16 14 14 13 11 13 14 9 7 8 5 4 7 6 8 7 7 6 6 6 5 4 4 4 4 4 3 2 2 2 2
18 16 16 16 16 17 16 17 30 28 28 25 17 15 13 13 19 18 16 14 12 9 3 8 9 10 10 8 10 8 7 7 5 5 5 4 4 4 4 2 1 3 3
19 14 13 18 15 16 16 16 15 19 28 29 23 13 15 12 21 19 16 13 9 8 7 11 9 10 9 8 9 9 7 6 6 6 6 5 5 5 4 3 2 2 2
20 25 15 14 11 4 6 10 11 13 14 14 16 19 12 20 20 17 12 8 3 7 11 10 9 9 9 8 9 7 7 6 5 5 5 6 6 6 4 3 3 3 2
16 13 11 9 2 3 5 2 11 13 12 11 11 7 12 14 14 12 14 5 8 10 10 9 9 10 9 8 7 7 8 7 6 5 4 4 4 5 4 4 4 4 4
14 17 8 5 2 2 4 8 13 13 13 12 11 10 6 7 5 6 6 8 11 9 9 8 8 8 9 9 8 8 7 7 6 4 4 4 4 4 4 5 4 3 2
11 12 3 5 4 4 6 8 10 11 11 11 11 11 14 10 9 9 10 11 9 10 10 9 9 9 8 8 8 8 7 6 6 5 5 4 5 4 4 4 4 3 3
10 6 8 7 7 8 8 10 10 10 11 11 10 10 16 10 10 10 10 10 9 8 8 9 8 8 8 8 8 8 7 7 6 5 6 5 5 4 4 4 4 3 3
9 7 8 7 8 9 10 11 11 11 11 10 10 10 10 10 12 11 10 10 9 8 7 7 8 7 6 6 6 8 8 7 7 6 6 6 5 5 4 4 4 3 3
1 9 9 10 11 12 12 14 13 14 14 14 13 12 11 11 12 13 10 9 9 8 7 7 7 8 7 6 5 5 6 5 6 6 9 7 6 5 5 4 5 6 5
8 9 10 9 11 11 12 13 13 13 13 13 12 12 12 12 12 10 9 9 9 9 9 8 7 9 11 11 10 9 8 8 7 7 5 8 8 9 7 7 7 6 7
10 10 9 9 9 10 11 12 13 12 13 11 12 12 11 11 10 10 9 10 10 10 11 9 10 12 11 10 11 11 11 11 11 11 9 9 9 8 8 10 12 8 8
Wind_Direction
205 201 190 200 201 202 200 206 208 202 209 215 219 218 214 215 233 242 253 272 275 275 279 280 277 258 221 221 212 229 236 178 250 284 289 278 184 179 145 170 130 124 175
258 211 200 204 201 201 209 214 206 211 203 217 213 201 209 220 228 216 227 239 245 259 257 268 264 265 224 212 215 226 228 214 221 265 244 259 227 218 157 162 117 125 205
221 218 260 226 195 205 211 214 202 210 219 213 199 206 212 212 206 213 218 229 237 252 243 257 258 255 243 216 211 214 220 221 215 230 231 231 266 164 90 3 124 191 215
222 219 212 214 231 212 209 207 206 207 211 213 218 211 201 205 215 220 223 230 242 258 247 257 264 258 247 237 213 222 224 212 207 206 234 211 212 99 107 143 217 196 221
246 241 230 228 220 237 222 209 207 202 209 211 213 209 203 193 200 206 220 236 249 258 255 266 268 260 248 229 224 245 197 203 193 187 213 200 202 136 198 173 195 157 235
300 274 252 224 213 210 222 226 220 206 209 206 205 206 200 204 200 199 199 217 238 252 257 260 274 287 297 260 259 246 221 203 199 188 196 203 191 185 150 177 149 148 237
271 269 253 248 231 219 213 208 217 218 214 215 211 207 206 207 200 207 216 208 213 237 264 272 283 290 285 278 262 272 233 232 221 193 189 204 175 188 151 164 172 170 200
270 261 248 241 238 232 216 218 221 216 214 218 219 211 210 212 198 206 214 214 218 227 236 259 263 274 272 268 256 235 218 195 187 201 209 196 187 170 174 174 171 150 88
265 256 240 231 235 233 232 230 225 223 224 225 225 214 211 216 197 199 198 199 206 232 244 248 260 269 276 247 236 224 192 185 117 169 194 168 149 149 147 122 143 137 183
260 256 253 245 235 232 231 233 231 228 230 225 230 225 209 211 196 193 192 191 198 229 239 257 255 254 265 246 224 203 191 191 168 140 138 93 116 129 166 155 152 175 158
264 261 253 250 249 251 252 247 248 240 233 224 225 226 219 203 199 194 187 187 198 213 224 257 262 268 256 228 213 202 202 158 185 131 127 121 116 146 162 163 162 149 150
266 263 259 255 247 246 249 250 245 237 229 222 216 217 219 208 203 198 186 188 186 189 225 246 258 271 273 222 210 211 162 141 146 129 132 123 150 175 176 176 174 170 193
261 259 259 255 250 246 241 240 238 233 233 228 214 214 211 200 202 183 180 193 190 189 227 238 253 269 264 226 223 171 164 155 138 147 139 148 168 162 134 122 104 156 172
265 262 261 260 256 248 244 241 237 233 227 225 226 226 212 187 193 173 177 188 189 203 246 257 255 236 222 208 159 166 151 141 161 148 131 128 141 126 109 119 149 180 130
260 257 257 249 243 240 232 226 224 224 222 222 221 222 222 216 190 177 178 183 179 205 190 255 255 203 194 174 166 151 136 143 134 118 133 147 130 113 110 171 158 132 141
258 254 248 249 249 244 238 233 226 224 212 215 211 211 219 188 158 167 176 180 190 186 214 233 218 192 181 173 153 151 155 142 138 136 143 139 133 133 136 168 143 143 152
277 276 268 261 257 250 239 226 221 213 208 202 198 184 211 166 157 165 181 186 201 130 234 225 202 180 174 172 155 161 147 148 142 148 146 143 141 137 140 154 146 128 127
287 281 273 272 268 247 242 227 206 194 183 193 184 188 176 146 147 164 164 116 206 211 230 194 171 155 161 161 156 134 132 139 148 141 140 148 146 147 139 161 155 144 137
292 281 267 270 228 307 312 20 153 148 151 154 150 121 154 139 142 143 147 194 222 223 201 158 168 155 153 144 147 139 145 149 145 144 134 135 141 142 149 151 137 139 135
298 295 293 159 177 90 58 89 109 118 125 138 149 156 127 116 155 164 181 212 232 171 152 152 148 143 148 149 139 139 133 137 137 127 133 140 140 150 148 144 139 134 154
305 314 182 149 142 122 112 106 110 123 132 142 153 156 155 166 178 194 193 210 160 141 143 145 146 147 142 136 139 137 143 138 130 128 141 135 144 138 147 127 129 135 141
310 320 38 49 115 149 146 132 133 134 134 134 136 150 158 173 176 158 135 116 111 116 128 137 141 137 136 139 141 141 134 134 135 139 141 142 138 130 136 128 135 139 141
310 62 44 65 78 91 98 108 114 116 117 125 134 142 140 108 102 91 90 98 102 102 108 114 115 113 113 121 134 140 141 148 156 147 146 141 139 140 142 136 139 127 131
91 61 54 63 63 72 74 77 78 76 84 84 84 84 82 81 83 78 80 86 83 76 72 76 87 106 105 96 94 96 115 132 140 147 139 140 137 135 119 106 95 100 96
82 73 72 76 79 82 86 83 80 78 80 81 83 82 79 75 74 73 73 74 74 75 66 65 68 77 83 98 98 98 103 98 103 112 101 102 101 97 97 97 101 95 95
79 83 78 76 76 81 84 85 80 79 78 76 74 73 78 79 76 74 75 79 77 69 68 59 58 68 76 76 89 96 91 93 88 84 93 93 94 90 93 93 84 78 76